Location: Crescent
(42.8242°N, 73.7329°W)
Time: 07:56:32
(UTC+00:00)

Vanguard 1 Rocket - Pass Details

Date: 26 February 2026
Orbit: 653 x 4214 km, 34.3° (Epoch: 12 March)

Event Time Altitude Azimuth Distance (km) Brightness Sun altitude
Rises 18:51:07 0° 262° (W) 4,017 11.2 33.5°
Reaches altitude 10° 18:53:22 10° 257° (WSW) 3,334 11.0 33.3°
Maximum altitude 19:01:47 55° 182° (S) 2,304 10.7 32.5°
Drops below altitude 10° 19:18:09 10° 112° (ESE) 6,188 11.6 30.7°
Sets 19:24:11 0° 109° (ESE) 7,692 11.9 30.0°
